This is the latest recevied weather packets stored in our database for station/object KJ4YLO. If no packets are shown the sender has not sent any weather packets the latest 1 day(s).
| Time | Temp. | Humidity | Pressure | Rain* | Wind** | Luminosity | Snow |
|---|---|---|---|---|---|---|---|
| 1778003901 | 24.44° C | 35% | 1017.3 hPa | 0 mm | 0 m/s | 661 W/m² | - |
| 1778003597 | 25° C | 34% | 1017.3 hPa | 0 mm | 2.68 m/s, 193° | 605 W/m² | - |
| 1778003294 | 25° C | 36% | 1017.3 hPa | 0 mm | 0.89 m/s, 147° | 731 W/m² | - |
| 1778002991 | 24.44° C | 35% | 1017.6 hPa | 0 mm | 0.89 m/s, 280° | 387 W/m² | - |
| 1778002686 | 24.44° C | 35% | 1018 hPa | 0 mm | 3.58 m/s, 153° | 507 W/m² | - |
| 1778002383 | 24.44° C | 35% | 1017.6 hPa | 0 mm | 1.34 m/s, 171° | 517 W/m² | - |
| 1778002091 | 24.44° C | 36% | 1018 hPa | 0 mm | 0.89 m/s, 256° | 649 W/m² | - |
| 1778001777 | 25° C | 33% | 1018 hPa | 0 mm | 0.89 m/s, 174° | 537 W/m² | - |
| 1778001472 | 24.44° C | 34% | 1018 hPa | 0 mm | 1.79 m/s, 171° | 724 W/m² | - |
| 1778001169 | 24.44° C | 37% | 1018.3 hPa | 0 mm | 0.89 m/s, 14° | 774 W/m² | - |
| 1778000866 | 24.44° C | 35% | 1018 hPa | 0 mm | 0.89 m/s, 258° | 797 W/m² | - |
| 1778000564 | 24.44° C | 33% | 1018 hPa | 0 mm | 1.34 m/s, 201° | 822 W/m² | - |
| 1778000258 | 25° C | 33% | 1018 hPa | 0 mm | 0.89 m/s, 194° | 776 W/m² | - |
| 1777999955 | 25° C | 35% | 1018 hPa | 0 mm | 0.89 m/s, 280° | 745 W/m² | - |
| 1777999650 | 23.89° C | 37% | 1018 hPa | 0 mm | 0.89 m/s, 214° | 669 W/m² | - |
| 1777999348 | 23.89° C | 37% | 1018 hPa | 0 mm | 2.24 m/s, 191° | 675 W/m² | - |
| 1777999046 | 23.33° C | 37% | 1018 hPa | 0 mm | 0.45 m/s, 251° | 722 W/m² | - |
| 1777998744 | 23.33° C | 39% | 1017.6 hPa | 0 mm | 1.34 m/s, 225° | 786 W/m² | - |
| 1777998441 | 23.89° C | 39% | 1017.6 hPa | 0 mm | 3.13 m/s, 167° | 775 W/m² | - |
| 1777998138 | 22.78° C | 42% | 1018 hPa | 0 mm | 0.89 m/s, 291° | 758 W/m² | - |
| 1777997835 | 22.78° C | 42% | 1018 hPa | 0 mm | 1.34 m/s, 181° | 675 W/m² | - |
| 1777997533 | 22.78° C | 43% | 1018 hPa | 0 mm | 0.89 m/s, 178° | 678 W/m² | - |
| 1777997230 | 22.22° C | 45% | 1018 hPa | 0 mm | 1.34 m/s, 235° | 670 W/m² | - |
| 1777996927 | 22.22° C | 45% | 1018 hPa | 0 mm | 1.79 m/s, 177° | 717 W/m² | - |
| 1777996623 | 22.78° C | 47% | 1018.3 hPa | 0 mm | 0 m/s | 665 W/m² | - |
* Rain latest hour (hover to see other rain measurements)
** Current wind speed in m/s (hover to see current wind gust speed)